Location: Duac?
(36.9744°N, 30.6500°E)
Time: 07:37:46
(UTC+00:00)

Okean O Rocket - Pass Details

Date: 05 August 2024
Orbit: 618 x 638 km, 98.1° (Epoch: 10 September)

Event Time Altitude Azimuth Distance (km) Brightness Sun altitude
Exits shadow 18:49:49 10° 201° (SSW) 1,959 3.9 -19.6°
Maximum altitude 18:53:34 31° 263° (W) 1,105 3.2 -20.2°
Drops below altitude 10° 18:57:26 10° 325° (NW) 2,005 5.3 -20.8°
Sets 18:59:51 0° 336° (NNW) 2,921 6.2 -21.1°
